FLOCK 4P-10 (44808 NORAD) Tracking and Keplerian Element Data

This shows tracking and keplerian element data for the satellite.

Feedback or suggestion? Click here.




ElementValue
Catalog44808
NameFLOCK 4P-10
Epoch Orbit18172
Epoch Day63.10747708
Epoch Year2023
RAAN133.3519
Inclination97.3586
Eccentricity0.0005026
Argument of Perigee321.8765
Mean Anonmoly38.2134
Mean Motion15.57395954
Decay Rate0.00326588
L11 44808U 19081E 23063.10747708 .00326588 00000+0 42888-2 0 9994
L22 44808 97.3586 133.3519 0005026 321.8765 38.2134 15.57395954181727



Live tracking and technical data element details for FLOCK 4P-10 (NORAD 44808). FLOCK 4P-10 can be tracked NOW for your location showing map with azimuth and elevation plus other details from your city location.







IsCatalogInMostPopularTable: catalog: 44808, numindb: 295
Update: records affected: 1



GetName: 44808 FLOCK 4P-10

Hit Count: updated at: Thu, 15 May 2025 09:48:20 GMT